Hourly Weather Almaly

Today, 25 February, Thursday

Time Temperature Precipitation Wind Pressure Humidity
00:00 -29°C° 0 mm 3 mps 745 mmHg 97%
01:00 -28°C° 0 mm 2 mps 746 mmHg 98%
02:00 -29°C° 0 mm 2 mps 746 mmHg 98%
03:00 -30°C° 0 mm 2 mps 746 mmHg 99%
04:00 -30°C° 0 mm 1 mps 747 mmHg 99%
05:00 -30°C° 0 mm 1 mps 747 mmHg 99%
06:00 -30°C° 0 mm 1 mps 748 mmHg 99%
07:00 -31°C° 0 mm 1 mps 749 mmHg 99%
08:00 -29°C° 0 mm 1 mps 749 mmHg 96%
09:00 -27°C° 0 mm 1 mps 749 mmHg 93%
10:00 -24°C° 0 mm 1 mps 749 mmHg 91%
11:00 -22°C° 0 mm 1 mps 749 mmHg 88%
12:00 -20°C° 0 mm 1 mps 749 mmHg 86%
13:00 -19°C° 0 mm 1 mps 749 mmHg 83%
14:00 -19°C° 0 mm 1 mps 749 mmHg 85%
15:00 -19°C° 0 mm 1 mps 749 mmHg 87%
16:00 -19°C° 0 mm 1 mps 749 mmHg 89%
17:00 -21°C° 0 mm 1 mps 749 mmHg 91%
18:00 -23°C° 0 mm 1 mps 749 mmHg 92%
19:00 -27°C° 0 mm 2 mps 749 mmHg 94%
20:00 -28°C° 0 mm 2 mps 749 mmHg 92%
21:00 -28°C° 0 mm 2 mps 749 mmHg 91%
22:00 -28°C° 0 mm 2 mps 749 mmHg 90%
23:00 -28°C° 0 mm 2 mps 748 mmHg 89%

Tomorrow, 26 February, Friday

Time Temperature Precipitation Wind Pressure Humidity
00:00 -29°C° 0 mm 2 mps 748 mmHg 89%
01:00 -29°C° 0 mm 2 mps 748 mmHg 89%
02:00 -28°C° 0 mm 2 mps 747 mmHg 89%
03:00 -28°C° 0 mm 2 mps 747 mmHg 89%
04:00 -27°C° 0 mm 2 mps 747 mmHg 88%
05:00 -26°C° 0 mm 2 mps 747 mmHg 90%
06:00 -26°C° 0 mm 2 mps 746 mmHg 92%
07:00 -25°C° 0 mm 2 mps 746 mmHg 93%
08:00 -24°C° 0 mm 2 mps 746 mmHg 92%
09:00 -23°C° 0 mm 3 mps 746 mmHg 91%
10:00 -22°C° 0 mm 3 mps 746 mmHg 90%
11:00 -21°C° 0 mm 3 mps 745 mmHg 89%
12:00 -19°C° 0 mm 4 mps 744 mmHg 88%
13:00 -18°C° 0 mm 4 mps 744 mmHg 88%
14:00 -18°C° 0 mm 4 mps 744 mmHg 88%
15:00 -18°C° 0 mm 4 mps 743 mmHg 88%
16:00 -17°C° 0 mm 4 mps 743 mmHg 88%
17:00 -18°C° 0 mm 4 mps 743 mmHg 89%
18:00 -19°C° 0 mm 4 mps 742 mmHg 90%
19:00 -19°C° 0 mm 4 mps 742 mmHg 91%
20:00 -19°C° 0 mm 4 mps 741 mmHg 91%
21:00 -19°C° 0 mm 4 mps 741 mmHg 90%
22:00 -19°C° 0 mm 4 mps 740 mmHg 90%
23:00 -19°C° 0 mm 4 mps 739 mmHg 90%

Day after tomorrow, 27 February, Saturday

Time Temperature Precipitation Wind Pressure Humidity
00:00 -19°C° 0 mm 4 mps 738 mmHg 90%
01:00 -19°C° 0 mm 4 mps 738 mmHg 90%
02:00 -19°C° 0.1 mm 5 mps 737 mmHg 90%
03:00 -18°C° 0.1 mm 5 mps 736 mmHg 91%
04:00 -17°C° 0.1 mm 6 mps 735 mmHg 91%
05:00 -17°C° 0.7 mm 6 mps 734 mmHg 92%
06:00 -17°C° 0.7 mm 7 mps 732 mmHg 92%
07:00 -15°C° 0.7 mm 7 mps 731 mmHg 92%
08:00 -14°C° 1.1 mm 7 mps 731 mmHg 92%
09:00 -13°C° 1.1 mm 7 mps 730 mmHg 92%
10:00 -12°C° 1.1 mm 7 mps 730 mmHg 92%
11:00 -11°C° 0.3 mm 7 mps 729 mmHg 92%
12:00 -8°C° 0.3 mm 7 mps 729 mmHg 92%
13:00 -6°C° 0.3 mm 6 mps 729 mmHg 92%
14:00 -5°C° 0.2 mm 6 mps 728 mmHg 92%
15:00 -4°C° 0.2 mm 5 mps 728 mmHg 93%
16:00 -4°C° 0.2 mm 5 mps 728 mmHg 94%
17:00 -4°C° 0.2 mm 5 mps 728 mmHg 95%
18:00 -2°C° 0.2 mm 5 mps 728 mmHg 96%
19:00 -2°C° 0.2 mm 4 mps 728 mmHg 97%
20:00 -2°C° 0.3 mm 4 mps 728 mmHg 96%
21:00 -3°C° 0.3 mm 4 mps 728 mmHg 96%
22:00 -3°C° 0.3 mm 4 mps 728 mmHg 96%
23:00 -3°C° 0.2 mm 4 mps 728 mmHg 96%

28 February, Sunday

Time Temperature Precipitation Wind Pressure Humidity
00:00 -4°C° 0.2 mm 3 mps 728 mmHg 96%
01:00 -4°C° 0.2 mm 3 mps 727 mmHg 96%
02:00 -4°C° 0.2 mm 3 mps 727 mmHg 96%
03:00 -4°C° 0.2 mm 3 mps 727 mmHg 96%
04:00 -4°C° 0.2 mm 3 mps 727 mmHg 96%
05:00 -4°C° 0.4 mm 3 mps 727 mmHg 96%
06:00 -4°C° 0.4 mm 3 mps 727 mmHg 96%
07:00 -4°C° 0.4 mm 3 mps 727 mmHg 96%
08:00 -4°C° 0.4 mm 3 mps 727 mmHg 96%
09:00 -2°C° 0.4 mm 3 mps 727 mmHg 96%
10:00 -3°C° 0.4 mm 4 mps 728 mmHg 96%
11:00 -3°C° 0.4 mm 4 mps 728 mmHg 97%
12:00 -3°C° 0.4 mm 4 mps 728 mmHg 98%
13:00 -2°C° 0.4 mm 4 mps 728 mmHg 98%
14:00 -2°C° 0.5 mm 4 mps 729 mmHg 98%
15:00 -1°C° 0.5 mm 3 mps 729 mmHg 97%
16:00 -2°C° 0.5 mm 3 mps 729 mmHg 97%
17:00 -2°C° 0.4 mm 3 mps 729 mmHg 97%
18:00 -2°C° 0.4 mm 2 mps 730 mmHg 97%
19:00 -3°C° 0.4 mm 2 mps 730 mmHg 97%
20:00 -2°C° 0.2 mm 1 mps 730 mmHg 97%
21:00 -3°C° 0.2 mm 1 mps 731 mmHg 97%
22:00 -4°C° 0.2 mm 1 mps 731 mmHg 97%
23:00 -6°C° 0 mm 1 mps 732 mmHg 97%

1 March, Monday

Time Temperature Precipitation Wind Pressure Humidity
00:00 -7°C° 0 mm 1 mps 732 mmHg 97%
01:00 -8°C° 0 mm 1 mps 732 mmHg 97%
02:00 -8°C° 0 mm 1 mps 733 mmHg 97%
03:00 -9°C° 0 mm 1 mps 733 mmHg 97%
04:00 -9°C° 0 mm 1 mps 734 mmHg 97%
05:00 -10°C° 0.1 mm 1 mps 734 mmHg 97%
06:00 -11°C° 0.1 mm 1 mps 735 mmHg 96%
07:00 -12°C° 0.1 mm 1 mps 735 mmHg 96%
08:00 -11°C° 0 mm 1 mps 736 mmHg 95%
09:00 -10°C° 0 mm 1 mps 736 mmHg 94%
10:00 -9°C° 0 mm 1 mps 737 mmHg 92%
11:00 -9°C° 0 mm 1 mps 737 mmHg 92%
12:00 -8°C° 0 mm 1 mps 737 mmHg 91%
13:00 -8°C° 0 mm 1 mps 737 mmHg 90%
14:00 -9°C° 0 mm 2 mps 738 mmHg 91%
15:00 -9°C° 0 mm 2 mps 738 mmHg 92%
16:00 -10°C° 0 mm 2 mps 738 mmHg 93%
17:00 -12°C° 0.1 mm 2 mps 738 mmHg 94%
18:00 -11°C° 0.1 mm 1 mps 739 mmHg 95%
19:00 -12°C° 0.1 mm 1 mps 739 mmHg 97%
20:00 -13°C° 0.1 mm 1 mps 739 mmHg 97%
21:00 -14°C° 0.1 mm 1 mps 739 mmHg 97%
22:00 -14°C° 0.1 mm 1 mps 740 mmHg 97%
23:00 -15°C° 0 mm 1 mps 740 mmHg 97%

2 March, Tuesday

Time Temperature Precipitation Wind Pressure Humidity
00:00 -16°C° 0 mm 0 mps 739 mmHg 98%
01:00 -17°C° 0 mm 0 mps 739 mmHg 99%
02:00 -18°C° 0 mm 0 mps 739 mmHg 98%
03:00 -18°C° 0 mm 0 mps 739 mmHg 98%
04:00 -18°C° 0 mm 0 mps 739 mmHg 98%
05:00 -18°C° 0 mm 1 mps 739 mmHg 98%
06:00 -19°C° 0 mm 1 mps 739 mmHg 98%
07:00 -19°C° 0 mm 1 mps 739 mmHg 98%
08:00 -19°C° 0 mm 2 mps 739 mmHg 97%
09:00 -18°C° 0 mm 2 mps 739 mmHg 95%
10:00 -17°C° 0 mm 3 mps 738 mmHg 94%
11:00 -17°C° 0 mm 4 mps 738 mmHg 93%
12:00 -17°C° 0 mm 4 mps 737 mmHg 93%
13:00 -17°C° 0 mm 5 mps 737 mmHg 92%
14:00 -17°C° 0 mm 5 mps 736 mmHg 91%
15:00 -17°C° 0 mm 5 mps 736 mmHg 90%
16:00 -17°C° 0 mm 5 mps 735 mmHg 89%
17:00 -18°C° 0.1 mm 5 mps 735 mmHg 91%
18:00 -18°C° 0.1 mm 6 mps 735 mmHg 92%
19:00 -20°C° 0.1 mm 6 mps 734 mmHg 94%
20:00 -20°C° 0.3 mm 6 mps 734 mmHg 93%
21:00 -20°C° 0.3 mm 6 mps 734 mmHg 93%
22:00 -20°C° 0.3 mm 6 mps 733 mmHg 93%
23:00 -20°C° 0.2 mm 6 mps 733 mmHg 93%
Show more